Regional Weather Roundup
Issued by NWS

Home | Current Version | Previous Version | Text Only | Print | Product List | Glossary On
Versions: 1 2 3 4 5 6 7 8 9 10 11 12 13 14 15 16 17 18 19 20 21 22 23 24 25 26 27 28 29 30 31 32 33 34 35 36 37 38 39 40 41 42 43 44 45 46 47 48 49 50
000
ASUS43 KTOP 040959
RWRKS

WEATHER ROUNDUP FOR KANSAS
NATIONAL WEATHER SERVICE GOODLAND KS
500 AM CDT TUE AUG 04 2015

NOTE:  "FAIR" INDICATES FEW OR NO CLOUDS BELOW 12,000 FEET WITH NO
SIGNIFICANT WEATHER AND/OR OBSTRUCTIONS TO VISIBILITY.

KSZ001>006-013>018-027>032-041>047-041100-
NORTHWEST KANSAS

CITY           SKY/WX    TMP DP  RH WIND       PRES   REMARKS
GOODLAND       MOCLDY    65  60  84 S5        29.96F
HAYS           MOCLDY    72  61  68 S6        29.92S
HILL CITY      CLOUDY    71  64  78 CALM      29.91F
RUSSELL        MOCLDY    72  67  84 S9        29.90F
$$

KSZ061>065-074>080-084>089-041100-
SOUTHWEST KANSAS

CITY           SKY/WX    TMP DP  RH WIND       PRES   REMARKS
DODGE CITY     CLOUDY    71  67  87 S12       29.96S
ELKHART          N/A     66  59  78 S10         N/A
GARDEN CITY    CLOUDY    71  68  90 SE9       29.93F
GREAT BEND     MOCLDY    73  66  78 S8        29.92S
LIBERAL        CLOUDY    70  63  78 S8        29.98F
PRATT          CLOUDY    72  68  88 S10       29.95F
$$

KSZ066>073-081>083-090>101-041100-
SOUTHEAST KANSAS

CITY           SKY/WX    TMP DP  RH WIND       PRES   REMARKS
CHANUTE        MOCLDY    69  67  93 SE6       29.93F
COFFEYVILLE    MOCLDY    69  67  93 CALM      29.92S
HUTCHINSON     CLOUDY    74  67  78 S6        29.93F
NEWTON         CLOUDY    73  63  68 S9        29.95F
PARSONS        MOCLDY    68  67  96 CALM      29.94S
WICHITA INTL   CLOUDY    74  67  78 SE5       29.92F
WICHITA JABRA  CLOUDY    76  67  73 S9        29.92F
WICHITA MCCONL CLOUDY    74  66  75 SE7       29.93S
$$

KSZ007>012-019>026-033>040-048>060-102>105-041100-
NORTHEAST KANSAS

CITY           SKY/WX    TMP DP  RH WIND       PRES   REMARKS
CONCORDIA      FOG       71  71 100 E3        29.90S VSB 1/4
EMPORIA        MOCLDY    70  67  90 S9        29.92S
LAWRENCE       PTCLDY    72  69  90 E5        29.93R
MANHATTAN      MOCLDY    72  70  93 CALM      29.90S
OLATHE IND     PTCLDY    72  70  93 E8        29.95R
OLATHE EXE     PTCLDY    71  68  90 SE6       29.94R
SALINA         MOCLDY    74  67  78 S7        29.90F
TOPEKA BILLARD PTCLDY    73  70  90 CALM      29.92R
TOPEKA FORBES  MOCLDY    73  69  87 E3        29.92S
$$


USA.gov is the U.S. government's official web portal to all federal, state and local government web resources and services.